Orbital Elements at Epoch 2459200.5 (2020-Dec-17.0) TDB
Reference: JPL 22 (heliocentric ecliptic J2000)
Element | Value | Uncertainty (1-sigma) | Units |
e | .2568382070077998 | 5.9985e-08 | |
a | 2.380620061298912 | 1.5193e-08 | au |
q | 1.769185873188101 | 1.389e-07 | au |
i | 10.97573449270448 | 5.011e-06 | deg |
node | 285.1082712273989 | 2.8812e-05 | deg |
peri | 10.57778009710645 | 3.207e-05 | deg |
M | 194.8526166994862 | 1.945e-05 | deg |
tp | 2459815.964143774637 (2022-Aug-24.46414377) | 7.645e-05 | TDB |
period | 1341.632469923487 3.67 | 1.2843e-05 3.516e-08 | d yr |
n | .2683298206255627 | 2.5687e-09 | deg/d |
Q | 2.992054249409724 | 1.9095e-08 | au |
|
| | Orbit Determination Parameters
Additional Information
|